Iron Gate, VA (24448)

9:18 AM EST on February 13, 2016 (GMT -0500)
Public Works Admin | | Change Station
CLOSE
Current Station
Personal Weather Station
Location: Clifton Forge, VA
Elevation: 1076 ft
Nearby Weather Stations
Active Advisory: Wind Chill Advisory

Elev 1076 ft 37.82 °N, 79.82 °W | Updated 26 seconds ago

Partly Cloudy
Partly Cloudy
17.1 °F
Feels Like 17 °F
N
0.9
Wind Variable Wind from NE
Gusts 2.5 mph

Today
High -- | Low -- °F
--% Chance of Precip.
Yesterday
High -- | Low -- °F
Precip. -- in
Pressure 30.20 in
Visibility 4.0 miles
Clouds Scattered Clouds 900 ft
Mostly Cloudy 1900 ft
Overcast 2700 ft
Windchill 17 °F
Dew Point -14 °F
Humidity 24%
Rainfall 0.00 in
Snow Depth Not available.
7:11 AM 5:55 PM
Waxing Crescent, 31% visible
METAR KLWB 131355Z AUTO 31010G15KT 4SM HZ SCT009 BKN019 OVC027 M11/M17 A3020 RMK AO2 T11081174
Pressure 30.20 in
Visibility 4.0 miles
Clouds Scattered Clouds 900 ft
Mostly Cloudy 1900 ft
Overcast 2700 ft
Windchill 17 °F
Dew Point -14 °F
Humidity 24%
Rainfall 0.00 in
Snow Depth Not available.
7:11 AM 5:55 PM
Waxing Crescent, 31% visible
METAR KLWB 131355Z AUTO 31010G15KT 4SM HZ SCT009 BKN019 OVC027 M11/M17 A3020 RMK AO2 T11081174

10-Day Weather Forecast

Almanac

Astronomy

Feb. 13, 2016 Rise Set
Actual Time
Civil Twilight
Nautical Twilight
Astronomical Twilight
Moon
Length of Visible Light
Length of Day
Tomorrow will be .
, % of the Moon is Illuminated

Today's Extremes

State Highs State Lows

Community

WunderPhotos

Upload Photos

1,892,558 photos uploaded!

WunderBlog® & News

Nearby

Air Quality

  Air Quality AQ Index Pollutant
Not available.

Snow Depth

Station Depth Elevation

Earthquake Activity

City Distance Mag. Time & Date
Minimum magnitude displayed is 2.5.

Coastal Water Temperatures

Place Temperature

Stations

Nearby Weather Stations

Station Location Temp. Windchill Dew Point Humidity Wind Precip. Elev Updated Type
                   

Watches & Warnings

Wind Chill Advisory
Issued: 7:06 AM EST Feb. 13, 2016 – National Weather Service

... Wind Chill Advisory remains in effect until 10 am EST Sunday...

* locations... areas of Virginia... West Virginia... and North
Carolina from the Blue Ridge westward.

* Hazard types... strong gusty winds... and very low wind chills.

* Wind chill readings... as low as 10 below.

* Timing... through Sunday morning.

* Impacts... very low wind chill values will lead to hypothermia
and frostbite if not properly protected from the cold.

* Winds... northwest 10 to 20 mph with gusts up to 40 mph.

* Temperatures... 4 to 22 above.

Precautionary/preparedness actions...

A Wind Chill Advisory means that very cold air and strong winds
will combine to generate low wind chills. This will result in
frost bite and lead to hypothermia if precautions are not taken.
If you must venture outdoors... make sure you wear a hat and
gloves.



Rab